CHINASAT 1E (ZX 1E) (53813 NORAD) Tracking and Keplerian Element Data

This shows tracking and keplerian element data for the satellite.

Feedback or suggestion? Click here.




ElementValue
Catalog53813
NameCHINASAT 1E (ZX 1E)
Epoch Orbit77
Epoch Day324.92533332
Epoch Year2022
RAAN279.7267
Inclination1.3499
Eccentricity0.0002622
Argument of Perigee316.8688
Mean Anonmoly237.8757
Mean Motion1.00272047
Decay Rate-1.28E-06
L11 53813U 22112A 22324.92533332 -.00000128 00000+0 00000+0 0 9991
L22 53813 1.3499 279.7267 0002622 316.8688 237.8757 1.00272047 776



Live tracking and technical data element details for CHINASAT 1E (ZX 1E) (NORAD 53813). CHINASAT 1E (ZX 1E) can be tracked NOW for your location showing map with azimuth and elevation plus other details from your city location.







IsCatalogInMostPopularTable: catalog: 53813, numindb: -1

Insert: records affected: 1


GetName: 53813 CHINASAT 1E (ZX 1E)

Hit Count: inserted at: Thu, 08 Dec 2022 09:26:17 GMT